Regional Weather Roundup
Issued by NWS Huntsville, AL

Home | Current Version | Previous Version | Text Only | Print | Product List | Glossary On
Versions: 1 2 3 4 5 6 7 8 9 10 11 12 13 14 15 16 17 18 19 20 21 22 23 24 25 26 27 28 29 30 31 32 33 34 35 36 37 38 39 40 41 42 43 44 45 46 47 48 49 50
000
ASUS44 KHUN 242010
RWRHUN

WEATHER ROUNDUP FOR THE TENNESSEE VALLEY
NATIONAL WEATHER SERVICE HUNTSVILLE AL
300 PM CDT THU JUL 24 2014

ALZ001>004-242100-
NORTHWEST ALABAMA

CITY           SKY/WX    TMP DP  RH WIND       PRES   REMARKS
COURTLAND HCN    N/A     82 N/A N/A NW8         N/A
RUSSELLVILLE     N/A     81 N/A N/A MISG        N/A
SHOALS AIRPORT SUNNY     87  63  44 NW8       30.00F
SHOALS TVA RES   N/A     84 N/A N/A MISG        N/A
$$

ALZ005>007-016-242100-
NORTH CENTRAL ALABAMA

CITY           SKY/WX    TMP DP  RH WIND       PRES   REMARKS
CULLMAN AG STN   N/A     82 N/A N/A NW7         N/A
DECATUR AP     SUNNY     85  68  56 W8        29.98F
HUNTSVILLE AP  MOSUNNY   83  68  60 W5        29.98F
HUN NWS/UAH      N/A     84  63  49 W7          N/A
MERIDIANVILLE  MOSUNNY   84  61  45 W5        29.98F
REDSTONE ARSN  MOSUNNY   84  70  61 W5        29.99F
VINEMONT AP    FAIR      83  70  65 NW6       30.01F
$$

ALZ008>010-242100-
NORTHEAST ALABAMA

CITY           SKY/WX    TMP DP  RH WIND       PRES   REMARKS
ALBERTVILLE    MOSUNNY   82  73  74 W9        29.97F
FORT PAYNE     MOSUNNY   82  64  54 W10       29.96F
SCOTTSBORO AP  PTSUNNY   84  72  65 W5        29.96F
SCOTTSBORO HCN   N/A     84 N/A N/A MISG        N/A
VALLEY HEAD      N/A     84 N/A N/A MISG        N/A
$$

TNZ076-096-097-242100-
SOUTHEASTERN MIDDLE TENNESSEE

CITY           SKY/WX    TMP DP  RH WIND       PRES   REMARKS
FAYETTEVILLE   SUNNY     81  64  57 NW10      29.98F
TULLAHOMA      MOSUNNY   82  66  57 NW10      29.99F
WINCHESTER     SUNNY     82  66  57 NW6       29.98F
$$

...SURROUNDING SITES...

CITY           SKY/WX    TMP DP  RH WIND       PRES   REMARKS
ATLANTA        PTSUNNY   79  72  79 W5        29.97F
ANNISTON       MOSUNNY   82  73  74 S3        29.96S
BIRMINGHAM     MOSUNNY   89  69  51 NW13      29.97F HX  93
CHATTANOOGA    MOSUNNY   86  68  54 NW8       29.94F
CORINTH        FAIR      81  59  47 NW9       30.01S
DALTON         MOSUNNY   84  72  65 N3        29.94F
GADSDEN        PTSUNNY   88  70  55 NW9       29.95S HX  92
GOLDEN TRNGL   PTSUNNY   90  72  55 NW7       29.97F HX  96
HALEYVILLE     FAIR      83  69  62 NW8       30.03F
JACKSON TN     SUNNY     81  58  45 NW13      30.03S
LEWISBURG      FAIR      84  66  54 N8        29.98F
MEMPHIS        SUNNY     82  60  47 N10       30.03F
MURFREESBORO   FAIR      79  66  64 N8        29.99F
NASHVILLE      MOSUNNY   82  65  56 VRB6      30.01F
ROME           PTSUNNY   88  71  57 NW8       29.93F HX  94
TUPELO         PTSUNNY   84  69  60 N9        29.99F
TUSCALOOSA     MOSUNNY   91  72  53 NW12      29.95F HX  98
$$

...GULF COAST WEATHER...

CITY           SKY/WX    TMP DP  RH WIND       PRES   REMARKS
GULFPORT       MOSUNNY   89  72  56 SE12      29.97F HX  96
PASCAGOULA     MOSUNNY   87  72  60 S8        29.98F HX  93
MOBILE         LGT RAIN  76  75  97 SE10      29.99F FOG
GULF SHORES    CLEAR     86  74  67 SW7       29.98F HX  95
PENSACOLA      PTSUNNY   86  75  69 S13       29.98F HX  95
DESTIN         MOSUNNY   86  74  67 VRB7      29.99F HX  94
PANAMA CITY    MOSUNNY   87  77  73 SW10      30.01S HX  98
APPALACHICOLA  PTSUNNY   88  76  67 SW14      30.00F HX  99
$$



USA.gov is the U.S. government's official web portal to all federal, state and local government web resources and services.